When you browse on this site, cookies collect data to enhance your experience and personalize the content and advertising you see.
Visit our Privacy Policy to learn more. By continuing to use the site, you agree to this use of cookies and data.
  • Em Portugal
  • Lista de países
  • Para 7 dias
  • Temperatura da água
  • Mapa do tempo
  • Widgets de tempo
  • user-avatar
    Iniciar Sessão

    Previsão horária em Corcha

    Hoje, 15 Outubro, Terça-feira

    Tempo Temperatura Precipitação Vento Pressão Humidade
    00:00 +14°C° 0 mm 1 m/s 670 mmHg 77%
    01:00 +14°C° 0 mm 1 m/s 670 mmHg 76%
    02:00 +12°C° 0 mm 0 m/s 669 mmHg 76%
    03:00 +12°C° 0 mm 0 m/s 669 mmHg 77%
    04:00 +12°C° 0 mm 0 m/s 668 mmHg 77%
    05:00 +12°C° 0 mm 0 m/s 669 mmHg 75%
    06:00 +13°C° 0 mm 0 m/s 669 mmHg 72%
    07:00 +14°C° 0 mm 0 m/s 670 mmHg 70%
    08:00 +16°C° 0 mm 0 m/s 670 mmHg 62%
    09:00 +20°C° 0 mm 1 m/s 671 mmHg 54%
    10:00 +22°C° 0 mm 1 m/s 671 mmHg 46%
    11:00 +23°C° 0 mm 1 m/s 671 mmHg 42%
    12:00 +23°C° 0 mm 1 m/s 671 mmHg 39%
    13:00 +24°C° 0 mm 2 m/s 671 mmHg 36%
    14:00 +23°C° 0 mm 2 m/s 670 mmHg 41%
    15:00 +21°C° 0 mm 2 m/s 670 mmHg 47%
    16:00 +20°C° 0 mm 2 m/s 669 mmHg 53%
    17:00 +19°C° 0 mm 1 m/s 669 mmHg 62%
    18:00 +16°C° 0 mm 1 m/s 668 mmHg 72%
    19:00 +14°C° 0 mm 1 m/s 668 mmHg 81%
    20:00 +13°C° 0 mm 0 m/s 668 mmHg 83%
    21:00 +13°C° 0 mm 0 m/s 668 mmHg 84%
    22:00 +12°C° 0 mm 0 m/s 668 mmHg 86%
    23:00 +12°C° 0 mm 0 m/s 668 mmHg 86%

    Amanhã, 16 Outubro, Quarta-feira

    Tempo Temperatura Precipitação Vento Pressão Humidade
    00:00 +12°C° 0 mm 0 m/s 668 mmHg 86%
    01:00 +12°C° 0 mm 0 m/s 668 mmHg 86%
    02:00 +11°C° 0 mm 0 m/s 668 mmHg 86%
    03:00 +11°C° 0 mm 0 m/s 667 mmHg 85%
    04:00 +11°C° 0 mm 0 m/s 667 mmHg 85%
    05:00 +12°C° 0 mm 0 m/s 667 mmHg 81%
    06:00 +12°C° 0 mm 0 m/s 668 mmHg 77%
    07:00 +13°C° 0 mm 0 m/s 668 mmHg 73%
    08:00 +15°C° 0 mm 0 m/s 669 mmHg 64%
    09:00 +19°C° 0 mm 1 m/s 669 mmHg 54%
    10:00 +21°C° 0 mm 1 m/s 670 mmHg 45%
    11:00 +22°C° 0 mm 1 m/s 670 mmHg 41%
    12:00 +22°C° 0 mm 1 m/s 670 mmHg 38%
    13:00 +23°C° 0 mm 2 m/s 669 mmHg 35%
    14:00 +21°C° 0 mm 2 m/s 669 mmHg 39%
    15:00 +20°C° 0 mm 2 m/s 669 mmHg 43%
    16:00 +19°C° 0 mm 2 m/s 668 mmHg 47%
    17:00 +19°C° 0 mm 1 m/s 668 mmHg 55%
    18:00 +16°C° 0 mm 1 m/s 668 mmHg 62%
    19:00 +14°C° 0 mm 1 m/s 668 mmHg 70%
    20:00 +13°C° 0 mm 0 m/s 668 mmHg 71%
    21:00 +13°C° 0 mm 0 m/s 668 mmHg 72%
    22:00 +12°C° 0 mm 0 m/s 668 mmHg 74%
    23:00 +12°C° 0 mm 0 m/s 668 mmHg 73%

    Depois de amanhã, 17 Outubro, Quinta-feira

    Tempo Temperatura Precipitação Vento Pressão Humidade
    00:00 +12°C° 0 mm 0 m/s 668 mmHg 72%
    01:00 +12°C° 0 mm 0 m/s 667 mmHg 72%
    02:00 +11°C° 0 mm 0 m/s 667 mmHg 71%
    03:00 +11°C° 0 mm 0 m/s 667 mmHg 71%
    04:00 +11°C° 0 mm 0 m/s 667 mmHg 71%
    05:00 +12°C° 0 mm 0 m/s 667 mmHg 69%
    06:00 +12°C° 0 mm 0 m/s 668 mmHg 67%
    07:00 +13°C° 0 mm 0 m/s 668 mmHg 66%
    08:00 +16°C° 0 mm 1 m/s 669 mmHg 59%
    09:00 +19°C° 0 mm 1 m/s 669 mmHg 52%
    10:00 +21°C° 0 mm 1 m/s 670 mmHg 45%
    11:00 +22°C° 0 mm 1 m/s 670 mmHg 42%
    12:00 +22°C° 0 mm 1 m/s 670 mmHg 40%
    13:00 +23°C° 0 mm 2 m/s 670 mmHg 38%
    14:00 +21°C° 0 mm 2 m/s 670 mmHg 43%
    15:00 +20°C° 0 mm 2 m/s 669 mmHg 47%
    16:00 +19°C° 0 mm 2 m/s 669 mmHg 52%
    17:00 +18°C° 0 mm 1 m/s 669 mmHg 59%
    18:00 +16°C° 0 mm 1 m/s 668 mmHg 66%
    19:00 +14°C° 0 mm 1 m/s 668 mmHg 74%
    20:00 +13°C° 0 mm 0 m/s 668 mmHg 75%
    21:00 +12°C° 0 mm 0 m/s 668 mmHg 75%
    22:00 +12°C° 0 mm 0 m/s 668 mmHg 76%
    23:00 +12°C° 0 mm 0 m/s 668 mmHg 76%

    18 Outubro, Sexta-feira

    Tempo Temperatura Precipitação Vento Pressão Humidade
    00:00 +12°C° 0 mm 0 m/s 668 mmHg 77%
    01:00 +12°C° 0 mm 0 m/s 668 mmHg 77%
    02:00 +11°C° 0 mm 0 m/s 668 mmHg 77%
    03:00 +11°C° 0 mm 0 m/s 668 mmHg 78%
    04:00 +11°C° 0 mm 0 m/s 668 mmHg 78%
    05:00 +11°C° 0 mm 0 m/s 668 mmHg 76%
    06:00 +12°C° 0 mm 0 m/s 668 mmHg 73%
    07:00 +14°C° 0 mm 1 m/s 668 mmHg 71%
    08:00 +16°C° 0 mm 1 m/s 669 mmHg 62%
    09:00 +19°C° 0 mm 1 m/s 670 mmHg 54%
    10:00 +21°C° 0 mm 1 m/s 670 mmHg 45%
    11:00 +22°C° 0 mm 1 m/s 670 mmHg 43%
    12:00 +22°C° 0 mm 1 m/s 670 mmHg 40%
    13:00 +23°C° 0 mm 1 m/s 670 mmHg 38%
    14:00 +21°C° 0 mm 2 m/s 670 mmHg 43%
    15:00 +20°C° 0 mm 2 m/s 669 mmHg 48%
    16:00 +19°C° 0 mm 2 m/s 669 mmHg 53%
    17:00 +18°C° 0.1 mm 1 m/s 669 mmHg 61%
    18:00 +15°C° 0.1 mm 1 m/s 668 mmHg 69%
    19:00 +14°C° 0.1 mm 1 m/s 668 mmHg 77%
    20:00 +13°C° 0 mm 1 m/s 668 mmHg 77%
    21:00 +12°C° 0 mm 0 m/s 668 mmHg 78%
    22:00 +12°C° 0 mm 0 m/s 668 mmHg 78%
    23:00 +12°C° 0 mm 0 m/s 668 mmHg 77%

    19 Outubro, Sábado

    Tempo Temperatura Precipitação Vento Pressão Humidade
    00:00 +12°C° 0 mm 1 m/s 668 mmHg 77%
    01:00 +12°C° 0 mm 1 m/s 668 mmHg 76%
    02:00 +12°C° 0 mm 1 m/s 668 mmHg 75%
    03:00 +12°C° 0 mm 1 m/s 668 mmHg 73%
    04:00 +11°C° 0 mm 1 m/s 668 mmHg 72%
    05:00 +12°C° 0 mm 1 m/s 668 mmHg 70%
    06:00 +13°C° 0 mm 1 m/s 668 mmHg 67%
    07:00 +13°C° 0 mm 1 m/s 668 mmHg 65%
    08:00 +15°C° 0 mm 1 m/s 669 mmHg 57%
    09:00 +19°C° 0 mm 1 m/s 670 mmHg 50%
    10:00 +21°C° 0 mm 1 m/s 670 mmHg 42%
    11:00 +21°C° 0 mm 1 m/s 670 mmHg 40%
    12:00 +22°C° 0 mm 1 m/s 670 mmHg 38%
    13:00 +21°C° 0 mm 2 m/s 670 mmHg 35%
    14:00 +21°C° 0.1 mm 2 m/s 670 mmHg 40%
    15:00 +20°C° 0.1 mm 2 m/s 670 mmHg 46%
    16:00 +19°C° 0.1 mm 2 m/s 669 mmHg 51%
    17:00 +18°C° 0.2 mm 1 m/s 669 mmHg 59%
    18:00 +15°C° 0.2 mm 1 m/s 669 mmHg 68%
    19:00 +13°C° 0.2 mm 1 m/s 668 mmHg 76%
    20:00 +13°C° 0 mm 1 m/s 668 mmHg 76%
    21:00 +12°C° 0 mm 0 m/s 668 mmHg 76%
    22:00 +12°C° 0 mm 0 m/s 668 mmHg 75%
    23:00 +12°C° 0 mm 1 m/s 668 mmHg 74%

    20 Outubro, Domingo

    Tempo Temperatura Precipitação Vento Pressão Humidade
    00:00 +12°C° 0 mm 1 m/s 668 mmHg 72%
    01:00 +12°C° 0 mm 1 m/s 668 mmHg 70%
    02:00 +12°C° 0 mm 1 m/s 668 mmHg 69%
    03:00 +12°C° 0 mm 1 m/s 668 mmHg 69%
    04:00 +12°C° 0 mm 1 m/s 668 mmHg 68%
    05:00 +12°C° 0 mm 1 m/s 668 mmHg 67%
    06:00 +13°C° 0 mm 1 m/s 668 mmHg 66%
    07:00 +13°C° 0 mm 1 m/s 669 mmHg 64%
    08:00 +15°C° 0 mm 1 m/s 669 mmHg 59%
    09:00 +18°C° 0 mm 1 m/s 670 mmHg 53%
    10:00 +20°C° 0 mm 1 m/s 671 mmHg 47%
    11:00 +21°C° 0 mm 1 m/s 671 mmHg 45%
    12:00 +21°C° 0 mm 1 m/s 671 mmHg 43%
    13:00 +21°C° 0 mm 2 m/s 671 mmHg 41%
    14:00 +20°C° 0 mm 2 m/s 670 mmHg 45%
    15:00 +20°C° 0 mm 1 m/s 670 mmHg 49%
    16:00 +20°C° 0 mm 1 m/s 670 mmHg 54%
    17:00 +18°C° 0 mm 1 m/s 669 mmHg 63%
    18:00 +15°C° 0 mm 1 m/s 669 mmHg 72%
    19:00 +12°C° 0 mm 0 m/s 669 mmHg 81%
    20:00 +12°C° 0 mm 0 m/s 669 mmHg 83%
    21:00 +12°C° 0 mm 0 m/s 669 mmHg 86%
    22:00 +12°C° 0 mm 1 m/s 670 mmHg 88%
    23:00 +12°C° 0 mm 1 m/s 669 mmHg 89%
    Mostrar mais